Simultaneous Nadir Overpasses (SNOs) Predictions

Prediction of SNOs between GOES-16 and NOAA-19 Satellite Orbit:

Table of predicted SNOs for the next 14.0 days since TLE Epoch: 10/31/2020
Index Date Time (GOES-16) GOES-16 Lat,Lon NOAA-19 Lat,Lon Distance(km) Time Diff (sec)
1 11/02/2020 11:32:37 -0.03, -75.18 0.74, -78.48 377.46 80
2 11/03/2020 11:20:55 -0.03, -75.18 0.10, -75.62 50.89 80
3 11/04/2020 11:06:33 -0.02, -75.18 -0.60, -72.77 275.84 80
4 11/06/2020 23:27:37 0.02, -75.17 -0.58, -77.75 294.41 80
5 11/07/2020 23:18:35 0.02, -75.17 0.08, -74.89 32.68 80
6 11/08/2020 23:06:52 0.01, -75.18 0.74, -72.02 359.90 80
7 11/11/2020 11:27:42 -0.01, -75.22 0.40, -76.95 197.23 80
8 11/12/2020 11:13:21 -0.01, -75.23 -0.30, -74.10 130.33 80
9 11/13/2020 11:01:38 -0.01, -75.24 -0.95, -71.24 457.91 80
